www.pogodaiklimat.ru

Погода и климат >> Архив погоды >> Индия >> Belgaum Airport


ПОГОДА в Belgaum Airport

  • Прогноз погоды в Belgaum Airport
  • Монитор погоды в Belgaum Airport
  • Климат города

АРХИВ ПОГОДЫ в Belgaum Airport

Время (UTC), дата Ветер
(напр.,м/с)
 
Видим.   Явления Облачность Т
(С)
Тd
(С)
f
(%)
Тe
(С)
Тes
(С)
Комфортность P
(гПа)
Po
(гПа)
Тmin
(С)
Tmax
(С)
R
(мм)
R24
(мм)
S
(см)
18 18.05 З 2 4000 м 6/3 450 м
[Sc Ac trans Ci fib]
+23.6 +22.4 93 +31 +31 очень
душно
1007.4 925.7
21 18.05 З 2 4000 м 6/3 450 м
[Sc Ac trans Ci fib]
+23.0 +21.8 93 +31 +31 очень
душно
1006.4 924.6
00 19.05 З 1 4000 м 9/5 450 м
[Cu Sc Ac trans Ci fib]
+22.4 +20.9 91 +29 +29 очень
душно
1006.2 924.4
03 19.05 З 4 4000 м 6/4 240 м
[Cu Sc Ac trans Ci fib]
+24.6 +22.3 87 +32 +34 очень
душно
1007.4 926.0 +21.4 +30.9
06 19.05 З 3 10 км 5/3 450 м
[Sc Ac trans Ci fib]
+29.0 +21.5 64 +37 +47 очень
душно
1006.3 926.0
09 19.05 З 3 10 км 5/3 360 м
[Sc Ci fib]
+33.4 +18.9 42 +38 +48 очень
душно
1002.7 923.9
12 19.05 З 4 10 км 8/4 450 м
[Cu Sc Ac trans Ci fib]
+31.6 +22.5 59 +41 +42 опасность
перегрева
1001.8 922.6 +34.7
15 19.05 З 4 10 км 6/4 360 м
[Sc Ac trans Ci fib]
+26.4 +23.6 85 +36 +36 очень
душно
1004.9 924.2
18 19.05 З 3 10 км 6/5 240 м
[St Ci fib]
+25.0 +23.6 92 +34 +34 очень
душно
1005.8 924.6
21 19.05 З 3 4000 м 6/4 240 м
[St Ac trans Ci fib]
+23.2 +21.7 91 +31 +31 очень
душно
1005.2 923.7
00 20.05 Ю 3 4000 м зарница 9/6 360 м
[Cb cap Ac trans Ci ing]
+23.4 +21.6 90 +32 +32 очень
душно
1006.6 925.0
03 20.05 ЮЗ 5 4000 м 10/6 360 м
[Cu Sc Ac trans Ci fib]
+25.2 +22.0 82 +32 +33 очень
душно
1008.4 927.1 +23.1 +34.7
06 20.05 З 5 10 км 9/3 450 м
[Sc Ac trans Ci fib]
+29.0 +20.5 60 +36 +40 очень
душно
1006.3 926.0
09 20.05 З 4 10 км 8/4 450 м
[Cu Sc Ac trans Ci fib]
+32.8 +20.0 47 +39 +44 очень
душно
1003.5 924.4
12 20.05 З 4 10 км 8/4 450 м
[Cu Sc Ac trans Ci sp]
+30.4 +21.2 58 +38 +39 очень
душно
1003.2 923.6 +32.8
15 20.05 З 3 4000 м 8/3 450 м
[Sc Ac trans Ci fib]
+25.2 +21.7 81 +32 +32 очень
душно
1005.4 924.4
18 20.05 З 3 4000 м 9/6 240 м
[Frnb Ac trans Ci fib]
+24.0 +22.0 89 +31 +31 очень
душно
1006.1 924.6
21 20.05 З 2 4000 м 9/5 450 м
[Cu Sc Ac trans Ci fib]
+23.6 +21.5 88 +30 +30 очень
душно
1006.2 924.7
00 21.05 штиль 0 4000 м в посл. час морось 9/5 450 м
[Cu Sc Ac trans Ci fib]
+23.4 +20.7 85 +31 +31 очень
душно
1005.7 924.2 0.0
03 21.05 З 3 10 км 8/3 450 м
[Sc Ac trans Ci fib]
+25.0 +20.9 78 +31 +34 очень
душно
1007.3 925.9 +22.8 +32.8 0.0
06 21.05 З 4 10 км 4/0
[Ci fib]
+30.6 +20.1 54 +37 +50 очень
душно
1005.9 926.1
09 21.05 З 5 10 км 5/4 450 м
[Cu Sc Ci fib]
+33.0 +21.6 51 +41 +46 опасность
перегрева
1003.4 924.3
12 21.05 З 8 10 км гроза без осадков 8/5 450 м
[Cb cap Ac trans Ci ing]
+30.4 +22.1 61 +39 +39 очень
душно
1003.5 923.9 +33.2
15 21.05 З 6 4000 м 6/5 240 м
[St Ci fib]
+25.4 +22.2 82 +33 +33 очень
душно
1005.8 924.8
18 21.05 З 2 4000 м 8/6 210 м
[St Ci fib]
+25.0 +21.2 79 +32 +32 очень
душно
1008.2 926.8
21 21.05 ЮВ 4 4000 м 9/6 240 м
[St Ac trans Ci fib]
+24.0 +20.4 80 +30 +30 очень
душно
1007.4 925.7
00 22.05 З 3 4000 м 9/6 210 м
[St Ac trans Ci fib]
+23.4 +21.0 86 +31 +31 очень
душно
1007.6 925.9
03 22.05 З 4 10 км 9/4 450 м
[Sc Ac trans Ci fib]
+25.2 +20.5 75 +31 +33 очень
душно
1007.6 926.4 +22.2 +33.2
06 22.05 З 3 10 км 8/4 450 м
[Cu Sc Ac trans Ci fib]
+30.2 +20.9 58 +38 +45 очень
душно
1006.2 926.4
09 22.05 З 4 10 км 5/4 450 м
[Cu Sc Ci fib]
+33.4 +20.4 47 +40 +47 очень
душно
1003.1 924.3
12 22.05 З 5 10 км 8/5 450 м
[Cu Sc Ac trans Ci fib]
+31.4 +21.0 54 +39 +39 очень
душно
1002.9 923.6 +33.9
15 22.05 З 3 4000 м 8/4 450 м
[Cu Sc Cs]
+26.8 +22.8 79 +36 +36 очень
душно
1005.6 924.9
18 22.05 З 2 4000 м 8/0
[Cs]
+25.0 +22.1 84 +32 +32 очень
душно
1006.8 925.4
21 22.05 З 2 4000 м 6/0
[Cs]
+24.0 +21.4 85 +30 +30 очень
душно
1005.5 924.0
00 23.05 З 2 4000 м 9/4 450 м
[Sc Ac trans Ci fib]
+23.4 +21.6 90 +32 +32 очень
душно
1005.9 924.4
03 23.05 З 3 10 км 8/0 2000 м
[Ac trans Cs]
+25.8 +21.7 78 +33 +37 очень
душно
1007.2 926.0 +22.8 +33.9
06 23.05 З 5 10 км 6/0 2000 м
[Ac trans Ci fib]
+31.0 +20.5 54 +38 +46 очень
душно
1006.0 926.2
09 23.05 З 5 10 км 6/4 450 м
[Cu Sc Ac trans Ci fib]
+33.6 +19.2 43 +39 +43 очень
душно
1002.8 924.0
12 23.05 З 6 10 км 5/3 450 м
[Sc Ci fib]
+31.2 +21.8 57 +40 +40 очень
душно
1001.5 922.3 +34.0
15 23.05 З 6 10 км 8/4 450 м
[Cu Sc Ac trans Ci ing]
+26.2 +20.9 73 +33 +33 очень
душно
1004.4 923.7
18 23.05 Ю 4 4000 м гроза, ливневой дождь 10/6 240 м
[Cb cap Ac As Ci ing]
+21.6 +20.1 91 +27 +27 душно 1009.4 927.0
21 23.05 З 4 4000 м слабый дождь {гроза} 10/6 210 м
[Frnb Ac As Ci ing]
+21.0 +19.8 93 +26 +26 душно 1006.5 924.1 3
00 24.05 З 2 4000 м {гроза, дождь} 9/5 240 м
[Frnb Ac trans Ci ing]
+22.4 +21.5 95 +30 +30 очень
душно
1006.1 924.3
03 24.05 З 3 10 км 6/0 2000 м
[Ac trans Ci fib]
+24.8 +21.3 81 +31 +36 очень
душно
1006.1 924.9 +20.4 +34.0 3
06 24.05 З 3 10 км 6/0 2000 м
[Ac trans Ci fib]
+30.2 +22.5 63 +39 +52 опасность
солнечного
удара
1005.2 925.4
09 24.05 СЗ 3 10 км 8/5 450 м
[Cu Sc Ac trans Ci fib]
+33.6 +21.3 49 +41 +47 опасность
перегрева
1002.0 923.2
12 24.05 З 2 4000 м гроза, ливневой дождь 9/6 450 м
[Cb cap Ac trans Ci ing]
+31.8 +22.1 57 +41 +41 опасность
перегрева
1001.6 922.4 +34.3
15 24.05 З 5 4000 м {гроза, дождь} 9/4 450 м
[Cu Sc Ac trans Ci ing]
+26.6 +22.9 80 +35 +35 очень
душно
1004.4 923.7 0.2
18 24.05 З 5 4000 м {гроза, дождь} 9/4 450 м
[Cu Sc Ac trans Ci ing]
+25.0 +21.5 81 +32 +32 очень
душно
1006.1 924.9
21 24.05 Ю 3 4000 м 8/4 240 м
[St Ac trans Ci ing]
+24.0 +22.6 92 +31 +31 очень
душно
1006.3 924.8 0.2
00 25.05 З 3 4000 м 6/3 450 м
[Sc Ac trans Ci sp]
+23.4 +21.3 88 +31 +31 очень
душно
1005.0 923.5
03 25.05 З 5 10 км 9/5 240 м
[St Ac trans Ci fib]
+25.0 +21.5 81 +32 +33 очень
душно
1006.6 925.2 +22.6 +34.3 0.2
06 25.05 З 4 10 км 6/0
[Cs]
+31.2 +20.1 52 +38 +50 очень
душно
1004.0 924.7
09 25.05 С 3 10 км 8/1 450 м
[Sc Ac trans Cs]
+34.4 +16.1 34 +37 +45 очень
душно
1001.2 922.8

 

Местоположение метеостанции Belgaum Airport (Karnataka, Индия): широта 15.85 долгота 74.62 высота над уровнем моря 747 м.

В архиве по умолчанию представлена погода в Belgaum Airport за последнюю неделю. Архивные данные за месяц целиком и за предыдущие месяцы, начиная с января 2011 года, Вы можете получить, выбрав интересующий диапазон дат из раскрывающегося списка и нажав кнопку "Ввод!".


*Определитесь, кто Вы:
робот инопланетянин человек

Внимание! Время в таблицах - всемирное. Для получения местного времени необходимо прибавить поправку, которая в Belgaum Airport равна 5.5 ч.

Смотрите также архив погоды в соседних городах и на ближайших метеорологических станциях:

Погода в Belgaum (Karnataka, Индия) (10 км)
Погода в Dharwad (Karnataka, Индия) (56 км)
Погода в Panjim (Goa, Индия) (95 км)
Погода в Mormugao (Goa, Индия) (102 км)
Погода в Kolhapur (Maharashtra, Индия) (103 км)
Погода в Vengurla (Maharashtra, Индия) (106 км)
Погода в Sangli (Maharashtra, Индия) (111 км)
Погода в Gadag (Karnataka, Индия) (118 км)
Погода в Karwar (Karnataka, Индия) (130 км)
Погода в Haveri (Karnataka, Индия) (145 км)

Пояснения к столбцам:

Ветер - указаны скорость ветра в м/с - средняя за 10 мин, порывы в срок и между сроками (в фигурных скобках) и направление, откуда дует ветер: С - северный, СВ - северо-восточный, В - восточный, ЮВ - юго-восточный, Ю - южный, ЮЗ - юго-западный, З - западный, СЗ - северо-западный.
Видимость - горизонтальная дальность видимости в метрах или километрах. При видимости от 1 до 10 км при отсутствии осадков обычно наблюдается дымка, при ухудшении видимости до 1 км и менее - туман. В сухую погоду видимость может ухудшаться дымом, пылью или мглою.
Явления - указаны атмосферные явления, наблюдавшиеся в срок или в последний час перед сроком; фигурными скобками обозначены явления, наблюдавшиеся между сроками (за 1-3 часа до срока); квадратными скобками обозначены град или гололедные отложения с указанием их диаметра в мм.
Облачность - указаны через наклонную черту общая и нижняя облачность в баллах и высота нижней границы облаков в метрах; квадратными скобками обозначены формы облаков: Ci - перистые, Cs - перисто-слоистые, Cc - перисто-кучевые, Ac - высококучевые, As - высокослоистые, Sc - слоисто-кучевые, Ns - слоисто-дождевые, Cu - кучевые, Cb - кучево-дождевые. Подробнее классификацию облаков см. в Атласе облаков (PDF).
T - Температура воздуха - температура, измеренная на высоте 2 м над землей.
Td - Температура точки росы - температура, при понижении до которой содержащийся в воздухе водяной пар достигнет насыщения.
f - Относительная влажность воздуха - влажноcть воздуха, измеренная на высоте 2 м над землей.
Te - Эффективная температура - температура, которую ощущает одетый по сезону человек в тени. Характеристика душности погоды. При расчете учитывается влияние влажности воздуха и скорости ветра на теплоощущения человека.
Tes - Эффективная температура на солнце - температура, которую ощущает человек, с поправкой на солнечный нагрев. Характеристика знойности погоды. Зависит от высоты солнца над горизонтом, облачности и скорости ветра. Ночью, в пасмурную погоду, а также при ветре 12 м/с и более поправка равна нулю.
P - Атмосферное давление - приведенное к уровню моря атмосферное давление.
Po - Атмосферное давление - измеренное на уровне метеостанции атмосферное давление.
Tmin - Минимальная температура - минимум температуры воздуха на высоте 2 м над землей.
Tmax - Максимальная температура - максимум температуры воздуха на высоте 2 м над землей.
R - Количество осадков - Количество выпавших осадков за период времени, мм. При наведении курсора мыши на число - период времени, за который выпало указанное количество осадков.
R24 - Количество осадков - Количество выпавших осадков за 24 часа, мм.
S - Снежный покров - Высота снежного покрова, см. При наведении курсора мыши на число - состояние снежного покрова и степень покрытия местности в баллах.